This demonstration page uses our WeatherBlox Daily Observations layout. Learn more.

Left ArrowRight Arrow

Hourly Observations for January 30, 2019

Temp ( °F °C ) Dew Point ( °F °C ) Humidity (%) Winds ( mph kmh ) Pressure ( in mb ) Visibility ( mi km ) Precip ( " mm )
12:59 am 00:59 Mostly Cloudy 37 2.8 32 0 82 82 WNW 17 28 29.96 1014 10 16 0.00 0.00
1:59 am 01:59 Mostly Cloudy 37 2.8 32 0 82 82 NW 12 19 29.98 1015 10 16 0.00 0.00
2:59 am 02:59 Cloudy 35 1.7 30 -1.1 82 82 N 16 26 29.99 1016 9 14 0.00 0.00
3:59 am 03:59 Cloudy 32 0 21 -6.1 64 64 N 16 26 30.00 1016 10 16 0.00 0.00
4:29 am 04:29 Mostly Cloudy 32 0 22 -5.6 66 66 N 9 15 30.02 1017 10 16 0.00 0.00
4:59 am 04:59 Mostly Cloudy 32 0 20 -6.7 61 61 NNW 14 22 30.04 1017 10 16 0.00 0.00
5:59 am 05:59 Mostly Cloudy 31 -0.6 18 -7.8 59 59 NNW 7 11 30.07 1018 10 16 0.00 0.00
6:59 am 06:59 Partly Cloudy 29 -1.7 17 -8.3 61 61 W 7 11 30.10 1019 10 16 0.00 0.00
7:59 am 07:59 Partly Cloudy 29 -1.7 15 -9.4 56 56 WNW 3 6 30.13 1020 10 16 0.00 0.00
10:59 am 10:59 Partly Cloudy 37 2.8 20 -6.7 50 50 SW 10 17 30.09 1019 10 16 0.00 0.00
11:59 am 11:59 Partly Cloudy 40 4.4 16 -8.9 38 38 SSW 12 19 30.04 1017 10 16 0.00 0.00
12:59 pm 12:59 Partly Cloudy 42 5.6 15 -9.4 33 33 SW 17 28 30.00 1016 10 16 0.00 0.00
1:59 pm 13:59 Partly Cloudy 43 6.1 14 -10 31 31 SW 21 33 29.98 1015 10 16 0.00 0.00
2:59 pm 14:59 Partly Cloudy 42 5.6 13 -10.6 30 30 SW 18 30 29.98 1015 10 16 0.00 0.00
3:59 pm 15:59 Partly Cloudy 44 6.7 14 -10 30 30 W 17 28 30.01 1016 10 16 0.00 0.00
4:59 pm 16:59 Partly Cloudy 43 6.1 14 -10 31 31 W 17 28 30.04 1017 10 16 0.00 0.00
5:59 pm 17:59 Partly Cloudy 41 5 16 -8.9 36 36 WSW 14 22 30.07 1018 10 16 0.00 0.00
7:59 pm 19:59 Partly Cloudy 38 3.3 14 -10 37 37 NW 14 22 30.16 1021 10 16 0.00 0.00
8:59 pm 20:59 Mostly Clear 34 1.1 14 -10 44 44 N 15 24 30.21 1023 10 16 0.00 0.00
9:59 pm 21:59 Mostly Clear 30 -1.1 12 -11.1 47 47 N 13 20 30.25 1024 10 16 0.00 0.00
10:59 pm 22:59 Mostly Clear 27 -2.8 13 -10.6 55 55 NNE 16 26 30.29 1026 10 16 0.00 0.00
11:59 pm 23:59 Mostly Clear 25 -3.9 10 -12.2 53 53 NNE 13 20 30.30 1026 10 16 0.00 0.00

Powered by AerisWeather